This is the latest recevied weather packets stored in our database for station/object W9PEM-13. If no packets are shown the sender has not sent any weather packets the latest 10 day(s).
| Time | Temp. | Humidity | Pressure | Rain* | Wind** | Luminosity | Snow |
|---|---|---|---|---|---|---|---|
| 1778079448 | 10° C | 44% | 982.6 hPa | 0 mm | - | 647 W/m² | - |
| 1778079358 | 10° C | 44% | 982.6 hPa | 0 mm | - | 647 W/m² | - |
| 1778078837 | 10° C | 45% | 982.6 hPa | 0 mm | - | 723 W/m² | - |
| 1778078758 | 10° C | 45% | 982.6 hPa | 0 mm | - | 723 W/m² | - |
| 1778078212 | 10° C | 44% | 982.5 hPa | 0 mm | - | 318 W/m² | - |
| 1778078158 | 10° C | 44% | 982.5 hPa | 0 mm | - | 318 W/m² | - |
| 1778077602 | 9.44° C | 48% | 982.6 hPa | 0 mm | - | 380 W/m² | - |
| 1778077558 | 9.44° C | 48% | 982.6 hPa | 0 mm | - | 380 W/m² | - |
| 1778077135 | 9.44° C | 51% | 982.4 hPa | 0 mm | - | 596 W/m² | - |
| 1778076958 | 9.44° C | 51% | 982.4 hPa | 0 mm | - | 596 W/m² | - |
| 1778076446 | 9.44° C | 53% | 982.5 hPa | 0 mm | - | 470 W/m² | - |
| 1778076359 | 9.44° C | 53% | 982.5 hPa | 0 mm | - | 470 W/m² | - |
| 1778075847 | 8.33° C | 56% | 982.5 hPa | 0 mm | - | 345 W/m² | - |
| 1778075759 | 8.33° C | 56% | 982.5 hPa | 0 mm | - | 345 W/m² | - |
| 1778075245 | 8.33° C | 55% | 982.6 hPa | 0 mm | - | 291 W/m² | - |
| 1778075209 | 8.33° C | 55% | 982.6 hPa | 0 mm | - | 291 W/m² | - |
| 1778075158 | 8.33° C | 55% | 982.6 hPa | 0 mm | - | 291 W/m² | - |
| 1778074692 | 7.78° C | 56% | 982.4 hPa | 0 mm | - | 236 W/m² | - |
| 1778074617 | 7.78° C | 56% | 982.4 hPa | 0 mm | - | 236 W/m² | - |
| 1778074558 | 7.78° C | 56% | 982.4 hPa | 0 mm | - | 236 W/m² | - |
| 1778074039 | 7.78° C | 56% | 982.5 hPa | 0 mm | - | 233 W/m² | - |
| 1778073958 | 7.78° C | 56% | 982.5 hPa | 0 mm | - | 233 W/m² | - |
| 1778073398 | 7.22° C | 62% | 982.4 hPa | 0 mm | - | 279 W/m² | - |
| 1778073358 | 7.22° C | 62% | 982.4 hPa | 0 mm | - | 279 W/m² | - |
| 1778072851 | 6.11° C | 66% | 982.4 hPa | 0 mm | - | 384 W/m² | - |
* Rain latest hour (hover to see other rain measurements)
** Current wind speed in m/s (hover to see current wind gust speed)